Temp
60 60 60 60 59 59 59 58 59 59 60 60 60 60 60 60 60 60 56 69 66 67 70 72 73 73 74 72 74 74 64 60 63 63 67 73 71 77 82 78 80 83 83 86 90
59 59 59 59 59 59 59 59 58 59 59 59 60 59 60 60 58 55 67 66 68 70 71 69 67 70 69 69 72 69 63 64 69 70 69 72 72 74 74 76 77 80 85 88 90
59 59 59 59 59 59 59 58 58 58 59 59 59 59 59 61 56 68 71 68 70 71 70 70 69 68 65 68 68 67 62 67 69 72 74 73 71 75 72 70 77 75 80 85 87
59 59 59 59 59 59 58 58 58 58 58 59 58 59 60 58 56 72 71 70 71 72 70 68 67 64 62 62 66 61 65 68 71 73 70 69 71 69 72 74 79 80 82 83 84
58 59 58 58 58 58 58 57 57 57 57 58 58 59 59 59 64 74 72 72 71 70 68 66 64 64 60 62 63 62 64 67 70 70 69 69 67 69 70 76 79 82 82 82 82
58 58 58 58 58 57 57 57 57 56 57 57 58 60 57 57 74 74 73 70 71 69 68 68 67 67 63 62 61 63 63 66 68 70 69 66 68 70 73 76 76 78 79 80 79
57 57 57 57 57 57 57 57 56 56 57 58 59 60 56 65 75 71 72 71 71 71 68 70 71 67 66 61 64 62 58 64 65 68 67 71 62 65 70 73 73 76 78 79 79
57 57 57 57 57 57 57 56 56 57 58 59 60 59 58 72 74 72 71 72 72 72 71 73 73 68 65 65 61 58 57 54 62 64 66 67 57 65 69 69 70 71 74 76 78
57 56 56 56 56 57 56 56 57 58 59 60 58 57 61 73 71 76 76 73 74 72 71 74 71 63 63 58 55 55 51 51 55 63 62 62 57 64 68 67 66 68 71 74 76
57 56 55 55 56 55 55 56 58 61 61 62 62 55 66 65 71 74 77 74 71 70 67 65 64 60 59 57 47 48 49 51 52 59 61 59 58 63 65 64 64 66 68 70 73
56 55 55 55 55 55 56 62 62 59 58 59 60 59 63 70 73 73 76 72 70 66 58 59 57 53 55 55 55 53 51 50 55 59 57 57 57 61 64 65 63 65 65 67 69
55 55 55 55 55 55 55 62 60 62 54 62 61 61 66 68 62 68 75 65 63 56 57 56 52 58 58 56 53 52 50 51 55 57 56 56 55 60 64 64 65 65 64 66 67
54 55 55 55 54 57 61 62 65 62 54 59 62 62 65 67 62 64 71 66 61 55 55 52 55 59 56 54 52 52 50 49 49 53 57 53 54 55 61 64 65 66 66 66 66
54 54 55 54 57 58 63 64 64 64 52 55 61 65 66 66 61 71 73 68 60 55 54 54 58 56 55 53 55 48 54 52 49 48 43 53 41 53 57 58 61 64 66 66 66
54 55 55 53 57 62 64 63 64 63 38 58 61 73 68 63 64 66 71 66 58 57 56 53 55 53 52 53 55 50 54 51 50 48 45 48 42 50 53 55 59 63 64 67 67
54 54 54 54 55 63 63 62 64 49 37 53 61 58 59 60 61 65 64 67 64 57 57 57 60 57 56 55 55 55 52 51 46 46 38 44 43 47 52 55 58 63 65 67 66
53 54 54 58 62 62 61 63 48 40 54 50 52 56 54 53 55 56 54 54 52 46 47 52 53 56 57 52 53 52 47 38 37 37 38 44 42 47 55 59 60 61 64 66 67
52 53 54 60 61 60 62 55 40 47 48 56 55 54 50 53 53 53 51 49 53 51 48 44 42 52 56 53 49 48 46 39 28 33 39 45 39 49 57 61 62 62 63 64 66
51 59 60 62 61 61 58 44 43 48 53 51 52 47 47 51 51 50 49 50 53 53 45 43 41 53 54 55 54 46 42 48 40 41 35 42 47 53 59 58 59 60 61 62 63
54 58 62 61 59 59 52 43 48 54 55 53 44 49 43 47 46 47 47 52 51 55 55 48 39 50 53 54 53 50 52 38 40 28 28 39 40 44 51 55 56 58 59 61 63
55 58 63 59 60 55 44 46 50 57 56 50 48 46 48 47 48 46 47 52 54 54 53 50 44 44 48 46 46 45 44 43 42 39 32 31 40 53 53 56 54 57 59 60 61
52 53 61 61 51 44 46 48 49 53 57 54 52 51 48 48 46 46 46 51 56 55 48 52 44 39 43 53 53 50 46 45 34 32 36 36 38 58 57 58 57 58 60 61 61
48 50 60 60 44 44 47 48 50 51 52 51 49 51 50 47 42 46 48 55 55 53 48 48 42 36 39 42 45 43 46 47 44 41 35 32 40 56 58 58 59 57 58 58 59
49 48 53 51 47 44 41 43 45 53 51 50 49 50 46 44 48 45 45 51 53 52 53 50 44 38 34 39 44 40 43 46 44 33 38 39 43 50 53 54 56 57 57 58 58
46 42 43 44 44 42 41 42 42 43 49 49 46 44 42 39 41 41 46 47 50 51 51 48 38 41 43 44 45 44 44 45 42 43 36 41 43 49 53 54 55 57 56 56 57
44 44 44 43 41 40 41 41 40 43 43 43 42 43 42 39 41 38 43 43 41 48 46 47 38 42 39 43 43 39 43 44 45 45 44 45 43 55 57 58 55 56 56 55 57
44 46 44 42 40 40 42 42 41 42 45 46 43 40 40 44 46 47 47 46 46 43 43 42 38 36 33 42 41 35 42 45 46 49 47 41 49 57 54 55 55 56 57 56 57
MSLP
1020.34 1019.94 1019.60 1019.25 1018.94 1018.65 1018.37 1018.09 1017.74 1017.44 1017.15 1016.90 1016.64 1016.42 1016.15 1015.83 1015.49 1015.06 1014.04 1012.50 1012.48 1012.11 1012.19 1011.94 1011.63 1011.36 1011.18 1010.87 1010.64 1010.58 1010.04 1008.93 1008.80 1008.79 1008.42 1008.28 1007.97 1007.84 1007.69 1007.36 1007.30 1007.04 1006.84 1006.76 1006.43
1020.22 1019.81 1019.46 1019.14 1018.81 1018.45 1018.15 1017.80 1017.52 1017.14 1016.88 1016.64 1016.37 1016.14 1015.88 1015.59 1014.97 1013.84 1012.24 1012.28 1012.26 1012.19 1012.00 1011.76 1011.48 1011.21 1011.00 1010.90 1010.60 1010.08 1009.30 1008.90 1008.79 1008.48 1008.31 1008.36 1008.25 1008.24 1007.76 1007.16 1007.10 1007.10 1006.98 1006.74 1006.37
1020.10 1019.66 1019.24 1018.87 1018.54 1018.25 1017.87 1017.58 1017.28 1016.98 1016.67 1016.41 1016.14 1015.91 1015.66 1015.33 1014.43 1012.02 1011.51 1011.94 1012.03 1012.12 1012.12 1012.05 1011.76 1011.47 1011.20 1010.94 1010.41 1009.86 1008.99 1009.23 1008.80 1008.29 1008.12 1007.67 1008.03 1008.29 1007.94 1006.94 1007.16 1007.15 1006.75 1006.39 1006.15
1019.96 1019.54 1019.10 1018.67 1018.27 1017.92 1017.61 1017.34 1017.05 1016.74 1016.53 1016.26 1016.05 1015.80 1015.39 1015.13 1013.46 1011.69 1011.62 1011.89 1012.00 1012.11 1012.00 1011.91 1011.66 1011.27 1010.97 1010.67 1010.53 1010.19 1009.58 1009.22 1008.89 1008.46 1008.19 1007.90 1007.99 1008.17 1008.02 1007.13 1007.55 1007.30 1007.02 1006.62 1006.04
1019.84 1019.39 1018.95 1018.54 1018.07 1017.60 1017.25 1016.98 1016.77 1016.49 1016.27 1016.09 1015.90 1015.63 1015.25 1014.25 1012.30 1011.57 1011.70 1011.85 1012.08 1012.09 1011.83 1011.70 1011.43 1011.20 1010.81 1010.76 1010.74 1010.44 1009.82 1009.57 1009.19 1008.90 1008.38 1008.22 1007.88 1008.01 1007.72 1007.65 1007.54 1007.23 1006.95 1006.62 1006.00
1019.66 1019.17 1018.69 1018.21 1017.74 1017.37 1017.03 1016.74 1016.53 1016.33 1016.08 1015.88 1015.73 1015.50 1014.98 1013.21 1011.54 1011.53 1011.73 1012.00 1011.92 1011.95 1011.74 1011.68 1011.35 1011.19 1010.91 1010.75 1010.70 1010.54 1010.14 1009.71 1009.36 1008.94 1008.62 1008.15 1007.48 1007.99 1007.42 1007.51 1007.35 1007.25 1006.76 1006.70 1006.09
1019.41 1018.96 1018.42 1017.92 1017.41 1017.01 1016.66 1016.41 1016.17 1016.01 1015.83 1015.71 1015.57 1015.34 1014.57 1012.21 1011.37 1011.72 1011.76 1011.62 1011.67 1011.61 1011.40 1011.42 1011.33 1011.24 1011.07 1010.77 1010.85 1010.57 1010.41 1009.82 1009.42 1008.93 1008.40 1008.10 1007.54 1007.15 1007.93 1007.51 1007.32 1006.96 1006.68 1006.64 1006.35
1019.21 1018.71 1018.14 1017.64 1017.13 1016.66 1016.24 1015.97 1015.73 1015.52 1015.46 1015.47 1015.47 1015.19 1013.17 1011.34 1011.31 1011.44 1011.42 1011.25 1011.41 1011.45 1011.41 1011.24 1011.26 1011.19 1011.13 1011.19 1011.05 1010.77 1010.70 1009.63 1009.21 1008.97 1008.49 1008.34 1007.11 1008.15 1008.18 1008.02 1007.31 1007.47 1007.15 1006.63 1006.52
1018.87 1018.37 1017.87 1017.34 1016.80 1016.19 1015.72 1015.40 1014.98 1014.79 1015.06 1015.25 1015.32 1014.72 1012.13 1011.03 1011.02 1010.66 1010.71 1010.66 1010.81 1011.10 1011.25 1011.14 1011.23 1011.41 1011.39 1011.09 1010.94 1010.95 1010.12 1009.93 1009.36 1009.38 1008.84 1008.37 1007.73 1008.17 1008.36 1008.11 1007.69 1007.24 1007.33 1006.86 1006.53
1018.54 1018.08 1017.55 1016.97 1016.47 1015.91 1015.27 1014.83 1014.82 1014.80 1015.17 1015.16 1014.80 1014.47 1011.94 1011.23 1010.81 1010.56 1010.40 1010.63 1010.57 1010.83 1011.00 1011.17 1011.32 1011.26 1011.41 1011.10 1010.54 1010.65 1010.46 1010.16 1009.57 1009.47 1008.95 1008.55 1008.37 1008.20 1008.26 1008.32 1007.93 1007.50 1007.24 1007.16 1006.64
1018.25 1017.72 1017.19 1016.60 1016.17 1015.85 1015.16 1014.79 1015.04 1014.86 1014.59 1013.87 1013.45 1012.85 1011.90 1011.32 1010.92 1010.31 1010.28 1010.47 1010.61 1010.76 1010.80 1011.28 1011.02 1010.70 1010.83 1011.08 1011.08 1011.08 1010.83 1010.39 1010.01 1009.68 1009.39 1008.61 1008.33 1008.23 1007.97 1007.72 1007.53 1007.49 1007.25 1006.77 1006.72
1018.07 1017.44 1016.85 1016.32 1015.84 1015.61 1015.54 1014.66 1014.80 1014.83 1013.98 1012.92 1012.75 1012.41 1011.80 1011.56 1011.07 1010.29 1010.23 1010.42 1010.49 1010.69 1011.15 1011.29 1010.74 1010.78 1011.06 1011.11 1011.16 1011.10 1010.80 1010.41 1010.20 1010.01 1009.76 1008.71 1007.88 1007.42 1006.88 1006.83 1006.83 1006.88 1006.88 1006.85 1006.87
1017.73 1017.15 1016.55 1016.00 1015.50 1015.18 1014.90 1014.69 1014.57 1014.55 1013.91 1012.46 1011.94 1011.54 1011.23 1011.40 1010.82 1010.14 1010.03 1010.12 1010.30 1010.63 1010.92 1010.88 1010.78 1010.87 1011.04 1010.96 1010.93 1010.93 1010.83 1010.79 1010.71 1010.35 1009.80 1008.99 1006.97 1006.83 1006.62 1006.54 1006.58 1006.64 1006.91 1007.01 1007.06
1017.34 1016.78 1016.27 1015.83 1015.67 1015.20 1014.68 1014.49 1014.34 1014.22 1013.31 1012.15 1011.25 1010.66 1010.88 1010.84 1010.42 1009.87 1009.82 1009.97 1010.34 1010.56 1010.91 1010.83 1010.85 1010.78 1010.81 1010.68 1010.70 1010.65 1011.01 1011.11 1011.06 1010.83 1009.91 1010.07 1007.40 1006.76 1006.67 1006.25 1006.58 1006.70 1006.59 1006.71 1006.82
1016.95 1016.37 1015.97 1015.91 1015.48 1014.97 1014.71 1014.37 1014.16 1014.08 1012.91 1011.59 1010.65 1010.20 1010.37 1010.57 1010.33 1009.75 1009.80 1009.87 1009.91 1010.40 1010.93 1010.49 1010.55 1010.60 1010.49 1010.36 1010.63 1010.80 1011.18 1011.31 1011.29 1010.86 1010.60 1009.58 1009.22 1006.90 1006.96 1006.28 1006.33 1006.42 1006.58 1006.63 1006.64
1016.54 1015.94 1015.74 1015.65 1015.62 1014.65 1014.56 1014.35 1014.05 1013.71 1012.10 1011.12 1010.62 1010.49 1010.51 1010.54 1010.36 1010.04 1009.91 1009.96 1010.19 1010.38 1010.59 1010.36 1010.62 1010.59 1010.43 1010.81 1010.92 1011.19 1011.31 1011.25 1011.57 1011.16 1010.20 1009.27 1009.06 1006.99 1006.53 1006.10 1006.17 1006.00 1006.45 1006.59 1006.80
1016.16 1015.62 1015.57 1015.25 1014.97 1014.66 1014.48 1014.06 1013.91 1012.95 1012.07 1011.50 1011.05 1011.04 1011.06 1010.88 1010.67 1010.57 1010.41 1010.25 1010.30 1010.43 1010.35 1010.35 1010.36 1010.60 1010.76 1010.84 1011.24 1011.20 1011.39 1011.00 1010.84 1010.63 1009.51 1009.76 1009.03 1006.86 1006.63 1006.40 1006.34 1006.21 1006.06 1006.23 1006.58
1015.98 1015.66 1015.52 1015.16 1014.90 1014.72 1014.32 1014.10 1013.37 1012.41 1011.97 1011.73 1011.48 1011.39 1011.25 1011.20 1011.09 1010.95 1010.83 1010.61 1010.68 1010.68 1010.45 1010.26 1010.21 1010.50 1010.73 1010.76 1010.86 1011.30 1011.70 1011.56 1010.94 1010.56 1009.82 1009.99 1007.79 1006.40 1006.54 1006.38 1006.36 1006.28 1006.52 1006.39 1006.30
1015.33 1015.53 1015.26 1014.93 1014.76 1014.59 1014.34 1014.01 1013.02 1012.52 1012.27 1012.04 1011.83 1011.67 1011.57 1011.57 1011.61 1011.31 1010.97 1010.63 1010.53 1010.69 1010.66 1010.66 1010.67 1010.83 1010.85 1010.97 1011.32 1011.58 1011.94 1012.26 1011.91 1011.45 1010.78 1008.66 1007.28 1006.94 1005.90 1006.20 1006.25 1006.30 1006.37 1006.36 1006.40
1015.83 1015.30 1015.08 1014.98 1014.84 1014.69 1014.43 1013.81 1013.21 1012.74 1012.43 1012.30 1012.08 1011.89 1011.78 1011.78 1011.84 1011.61 1011.09 1010.73 1010.67 1010.84 1010.98 1011.23 1011.20 1011.07 1010.87 1011.22 1011.49 1011.42 1011.95 1012.46 1012.40 1011.41 1009.93 1007.92 1006.92 1005.91 1005.80 1005.74 1006.17 1006.13 1006.06 1006.24 1006.16
1015.89 1015.33 1014.79 1014.79 1014.82 1014.89 1014.88 1014.27 1013.43 1012.78 1012.72 1012.54 1012.12 1012.05 1011.93 1011.93 1011.91 1011.74 1011.16 1010.91 1010.80 1010.93 1011.43 1011.65 1011.86 1011.41 1011.61 1010.99 1010.77 1011.56 1011.57 1012.19 1012.29 1011.87 1010.48 1008.55 1006.24 1006.03 1005.83 1005.74 1006.01 1006.20 1006.28 1005.99 1005.76
1016.46 1015.56 1014.94 1014.57 1015.31 1016.02 1015.47 1014.97 1014.24 1013.14 1012.73 1012.51 1012.38 1012.18 1012.16 1012.12 1011.94 1011.71 1011.18 1010.81 1010.82 1010.95 1011.32 1011.67 1011.91 1011.31 1010.90 1010.63 1010.89 1010.87 1011.08 1011.46 1011.61 1011.50 1010.88 1009.57 1006.35 1005.92 1005.75 1005.84 1006.04 1005.88 1005.77 1005.82 1005.66
1017.43 1016.50 1015.27 1014.89 1015.80 1016.34 1016.00 1015.36 1014.58 1013.65 1013.11 1012.87 1012.70 1012.60 1012.64 1012.51 1012.38 1011.74 1011.36 1011.16 1011.22 1011.25 1011.26 1011.86 1011.87 1011.22 1010.54 1011.32 1011.32 1010.94 1010.92 1011.21 1011.51 1011.54 1010.17 1009.21 1005.81 1006.05 1005.57 1005.58 1005.58 1005.47 1005.50 1005.51 1005.32
1018.02 1017.26 1016.52 1016.57 1017.44 1017.26 1016.99 1015.81 1014.86 1014.00 1013.63 1013.64 1013.29 1013.14 1013.20 1012.94 1012.77 1012.11 1011.89 1011.68 1011.71 1011.71 1011.79 1011.95 1011.68 1011.50 1010.70 1010.32 1010.78 1010.58 1010.65 1010.80 1010.76 1010.34 1009.14 1007.66 1005.87 1005.64 1005.21 1005.13 1005.14 1005.21 1005.16 1005.01 1004.88
1018.86 1019.25 1018.94 1018.00 1017.82 1017.96 1017.83 1016.71 1015.64 1014.94 1014.46 1014.22 1013.85 1014.05 1014.17 1013.81 1013.39 1012.87 1012.64 1012.40 1012.21 1012.16 1012.13 1012.12 1011.47 1011.57 1010.92 1010.62 1010.41 1009.97 1009.59 1009.51 1009.25 1008.81 1008.34 1006.75 1006.23 1004.97 1004.92 1004.83 1004.72 1004.62 1004.59 1004.48 1004.20
1019.87 1020.03 1019.90 1018.89 1018.53 1018.27 1017.67 1016.69 1016.27 1015.88 1015.74 1014.93 1014.79 1014.69 1014.89 1014.59 1014.16 1013.61 1013.47 1013.12 1012.58 1012.25 1012.13 1012.05 1011.46 1011.09 1010.27 1010.32 1010.00 1009.24 1008.52 1008.13 1007.68 1007.27 1006.74 1006.19 1005.27 1004.70 1004.60 1004.37 1004.50 1004.29 1004.08 1003.85 1003.55
1020.85 1020.69 1020.34 1019.20 1018.49 1018.33 1017.43 1016.96 1016.61 1016.73 1015.82 1015.60 1015.58 1015.36 1014.86 1014.43 1014.21 1013.84 1013.49 1013.10 1012.78 1012.57 1012.38 1012.30 1012.05 1011.50 1010.29 1010.10 1009.63 1008.40 1006.12 1006.04 1005.59 1005.66 1005.39 1004.83 1004.02 1004.04 1004.02 1003.99 1003.96 1003.73 1003.48 1003.26 1002.95
Wind_Speed
15 15 15 15 14 14 14 13 14 13 13 14 14 15 15 15 14 6 6 4 4 10 4 5 1 2 3 3 4 4 8 12 17 16 9 2 2 1 3 9 4 2 6 13 14
16 15 15 14 14 14 14 13 14 14 13 14 14 14 15 14 11 7 8 7 9 2 1 2 3 2 4 4 6 9 10 16 6 9 11 8 6 8 6 11 11 8 9 11 12
17 17 17 16 16 15 14 14 13 13 13 13 13 13 13 11 4 3 5 8 6 4 1 1 2 2 5 3 6 6 12 8 7 10 11 14 8 4 8 17 7 13 17 17 12
18 17 18 17 17 16 15 14 14 13 12 12 12 12 13 2 2 3 8 10 7 4 2 3 3 5 4 7 3 7 5 11 14 12 5 7 3 7 11 18 11 11 17 10 14
18 19 18 18 18 17 16 14 14 13 12 11 10 10 3 2 4 2 9 10 6 2 1 2 3 3 5 3 3 7 3 4 6 9 8 7 14 15 14 13 15 9 12 14 9
18 19 19 19 19 17 16 14 13 13 12 10 7 6 1 3 3 4 8 7 4 3 1 4 2 2 3 2 4 1 2 6 7 10 6 9 17 9 7 5 10 13 13 6 4
18 19 20 19 19 18 16 15 11 12 11 8 5 2 1 7 3 2 6 4 5 5 3 4 3 3 2 2 1 1 6 7 11 12 12 11 17 21 2 6 13 10 7 4 5
21 21 21 20 20 18 17 17 16 13 10 7 5 2 6 4 3 6 6 4 5 6 4 4 3 1 2 2 2 2 2 5 3 2 5 12 14 2 8 2 6 7 5 6 5
21 21 21 21 20 19 18 17 13 4 6 8 4 2 3 5 2 2 4 2 4 4 3 3 2 1 1 1 2 1 3 3 2 5 4 3 4 3 7 9 10 7 6 5 7
22 22 22 22 20 19 18 7 3 9 6 4 2 3 3 2 3 5 3 4 2 3 3 2 2 3 2 3 3 1 2 2 5 2 7 7 7 12 10 9 9 9 8 5 4
22 22 21 22 21 17 8 2 1 2 3 4 2 4 4 6 4 3 0 3 1 3 2 1 5 5 3 4 3 3 4 5 5 2 9 10 13 13 15 13 12 10 9 7 6
23 23 21 20 19 16 3 3 2 3 5 4 6 7 6 2 4 3 4 4 2 2 1 3 7 4 2 3 4 5 5 7 6 5 8 14 19 16 14 14 14 13 8 8 5
22 21 20 18 17 3 2 3 5 6 3 4 4 3 1 6 4 4 6 4 3 3 4 4 1 5 3 2 4 6 8 4 6 7 9 12 13 3 4 7 6 3 5 5 8
22 19 16 17 2 1 1 4 5 5 2 1 2 2 4 3 4 4 6 4 2 3 4 5 2 5 6 7 7 7 4 3 4 6 9 6 11 12 8 2 4 2 6 5 7
22 17 11 6 2 1 4 8 1 3 3 2 2 2 1 4 5 2 2 3 11 7 4 2 3 4 7 4 5 2 2 2 5 11 10 13 8 3 3 6 5 6 2 6 7
23 15 4 3 2 3 7 4 2 3 4 3 1 3 3 1 1 6 1 1 2 5 6 12 1 3 2 3 2 3 2 6 1 3 7 3 6 4 5 5 7 10 6 10 4
24 13 4 2 2 5 5 0 2 4 2 1 0 2 2 2 2 3 3 2 6 6 9 4 4 1 2 4 2 2 4 5 4 5 3 5 9 10 7 7 11 13 13 12 9
24 4 2 2 5 4 1 1 5 1 2 1 1 4 4 1 1 4 2 4 3 2 4 7 9 7 6 4 1 2 4 5 6 4 5 5 10 2 5 7 11 9 7 9 11
11 1 0 2 2 1 1 2 3 3 1 3 5 3 2 3 3 3 4 5 5 6 5 5 5 1 5 2 3 3 7 2 7 8 7 7 8 10 10 4 3 1 6 11 13
2 1 1 9 1 2 1 3 3 2 2 2 5 5 4 3 3 3 3 2 3 5 1 1 6 5 3 1 4 8 7 4 3 5 6 6 13 9 10 9 3 10 9 13 15
1 0 2 7 1 3 1 3 4 4 1 5 4 5 7 7 7 4 5 3 4 6 3 3 5 4 3 8 10 6 8 5 4 4 5 6 5 3 5 9 9 7 12 17 17
2 1 4 3 2 1 1 2 5 5 1 4 4 7 7 5 5 8 9 9 6 7 5 5 4 10 16 10 6 8 10 13 8 6 6 6 10 9 13 7 8 16 20 14 13
2 3 2 3 2 2 4 5 4 3 1 2 3 3 1 4 5 7 8 3 4 7 6 7 5 8 6 4 3 6 10 11 7 6 15 13 10 6 10 15 20 19 17 12 13
2 3 3 4 2 2 4 5 5 3 3 3 4 1 2 4 6 5 4 2 3 2 2 6 10 12 13 11 1 5 9 12 14 11 15 19 26 26 25 23 19 17 12 11 12
4 2 1 3 1 3 2 4 6 5 3 3 1 5 3 4 6 9 10 7 3 5 9 5 16 15 18 19 19 22 21 20 21 20 22 22 25 28 23 21 20 14 13 12 14
2 2 1 2 3 3 2 3 3 4 3 4 7 5 5 7 10 19 18 15 15 6 9 5 11 13 21 14 15 19 22 23 26 26 27 28 29 26 22 13 12 14 12 15 13
1 1 0 2 2 2 3 3 2 3 6 11 6 8 13 16 10 13 16 16 15 12 12 9 6 5 13 8 9 14 26 26 26 20 17 19 22 13 11 14 13 15 14 15 15
Wind_Direction
349 346 345 343 340 338 334 331 326 322 321 320 321 323 325 325 317 296 241 235 177 241 295 306 200 142 141 196 184 155 233 239 233 239 254 229 303 136 286 283 300 284 310 324 344
345 342 337 335 333 332 327 327 320 319 319 319 322 326 328 328 310 270 246 217 237 303 13 49 94 123 168 195 191 202 229 234 222 235 236 252 273 295 292 286 292 283 304 324 338
342 340 338 336 332 327 323 319 314 312 314 319 323 327 328 326 279 16 174 195 187 172 92 84 136 136 189 195 186 193 237 227 235 222 244 236 263 276 278 282 297 312 317 324 325
342 339 336 332 331 326 320 315 310 306 308 316 319 329 324 272 90 26 148 163 152 139 107 116 132 152 180 206 207 238 233 241 250 265 258 245 297 247 256 267 297 301 297 301 323
340 336 334 332 329 324 320 314 308 302 302 306 313 327 334 258 253 342 156 150 134 143 118 131 157 157 184 199 225 237 235 265 258 278 275 298 252 254 269 273 280 290 300 303 309
338 336 333 328 328 323 316 310 303 297 295 295 302 315 318 269 127 31 150 151 165 190 193 190 206 232 151 204 228 177 256 272 282 261 244 249 264 270 249 332 299 290 299 319 3
336 334 331 329 328 325 319 312 301 290 283 280 274 247 209 239 145 52 192 215 188 194 246 213 221 250 194 224 9 313 270 263 244 247 242 230 256 253 160 234 275 304 291 320 16
336 333 330 328 328 325 321 315 304 285 261 246 226 179 253 240 280 271 184 231 211 219 247 244 220 225 266 84 46 254 237 248 131 254 241 211 240 43 25 356 276 314 305 335 340
334 333 330 329 329 327 322 318 309 257 200 177 163 240 264 315 266 339 205 221 173 166 216 85 129 54 160 297 216 119 223 235 202 52 0 230 277 16 347 332 307 311 298 309 316
335 333 330 328 328 328 322 319 117 107 114 176 239 243 248 335 307 306 218 218 225 136 140 133 106 193 141 234 237 208 260 260 278 17 333 299 278 305 304 282 272 291 288 275 287
336 332 331 329 328 330 327 158 221 151 186 250 320 290 295 313 271 254 253 153 128 67 222 69 210 204 180 214 255 245 239 252 279 272 322 301 295 289 278 266 247 245 257 269 268
336 333 330 328 325 328 272 75 86 333 313 247 253 268 266 267 299 277 175 195 178 269 178 215 235 207 191 203 209 213 233 248 273 286 311 307 301 293 275 256 248 240 217 259 258
335 332 329 326 317 310 7 82 322 167 266 291 211 228 273 176 240 258 185 167 213 222 206 237 97 156 213 225 229 222 233 227 284 319 290 314 291 247 220 282 219 246 272 282 290
334 332 330 326 265 331 72 337 323 205 322 129 199 161 156 213 257 217 211 179 191 265 186 252 128 196 202 256 214 252 187 220 263 300 307 351 288 289 280 243 222 268 313 315 296
334 330 332 322 342 138 338 330 303 218 228 133 130 105 19 231 336 82 165 182 230 200 210 235 229 243 262 239 191 130 212 241 279 288 303 262 255 286 220 234 184 347 310 319 327
335 330 321 118 227 301 328 316 212 222 229 164 61 354 338 18 332 323 290 69 79 213 236 269 292 252 269 100 114 121 179 288 236 253 247 217 247 187 214 220 230 300 292 322 338
338 332 185 165 23 336 320 172 220 231 44 159 231 345 290 301 284 7 333 233 230 218 232 223 213 188 203 183 135 153 342 305 253 204 278 134 285 255 225 225 263 305 309 324 324
337 326 188 265 310 321 4 184 237 160 238 314 301 308 229 359 241 328 242 226 188 207 239 250 241 191 172 244 272 290 233 263 280 257 301 226 249 207 195 264 285 288 317 332 344
332 311 260 342 319 329 119 212 267 211 325 309 301 241 218 205 301 297 245 245 220 191 232 213 246 281 221 186 234 128 214 352 260 252 268 240 257 258 257 228 289 0 351 352 339
3 349 327 337 9 67 117 251 246 239 356 258 231 218 231 235 271 239 263 199 203 202 228 191 273 241 278 203 184 229 141 192 192 249 255 256 277 257 284 298 309 322 323 330 332
23 207 80 351 180 48 247 258 281 265 312 227 245 250 234 274 237 233 247 237 217 195 187 170 238 241 234 215 245 192 213 204 259 230 266 297 261 273 269 299 302 313 327 323 325
357 263 13 343 18 12 264 313 322 276 296 275 251 250 249 227 238 240 240 232 175 171 214 208 230 257 269 268 255 237 238 215 230 211 237 280 271 285 277 298 312 308 314 319 308
24 300 4 313 43 342 318 285 271 278 279 301 278 247 240 235 255 239 245 271 228 197 201 177 213 264 251 166 136 210 207 226 248 264 248 256 247 202 269 284 307 309 313 303 305
351 358 17 50 42 31 332 279 288 301 262 328 286 359 319 253 239 276 243 282 5 278 223 179 254 247 257 278 288 223 206 215 242 250 262 244 271 279 285 291 300 297 290 306 314
21 46 48 325 64 334 254 290 288 291 355 317 218 62 10 282 283 259 274 282 263 282 283 259 256 254 258 264 267 267 266 262 255 256 252 270 271 275 283 292 293 291 290 292 318
33 357 22 289 280 284 223 236 277 299 292 280 268 315 312 269 268 286 286 274 264 254 246 216 264 263 261 265 257 265 263 260 260 259 259 261 266 272 279 280 270 276 283 287 306
32 128 199 242 206 242 231 249 261 342 279 258 290 323 308 298 301 286 277 265 256 249 257 267 270 274 263 281 280 269 256 248 253 252 250 252 257 277 281 284 300 300 287 288 296